Total_Precipitation_Accumulation
1.33 1.39 1.42 1.43 1.44 1.44 1.41 1.34 1.41 1.48 1.51 1.49 1.54 1.63 1.67 1.71 1.83 1.96 1.95 2.06 2.05 2.02 2.00 2.12 2.24 2.44 2.40 2.23 2.37 2.50 2.62 2.81 2.51 2.25 2.14 1.91 1.88 1.74 1.70 1.64 1.49 1.45 1.29
1.31 1.43 1.62 1.59 1.57 1.51 1.39 1.34 1.40 1.42 1.43 1.45 1.53 1.61 1.60 1.68 1.85 1.94 1.92 2.05 2.06 1.97 2.01 2.16 2.15 2.24 2.33 2.23 2.21 2.22 2.40 2.65 2.57 2.38 2.40 2.31 2.14 2.00 1.98 1.89 1.56 1.41 1.38
1.40 1.45 1.59 1.61 1.57 1.47 1.38 1.34 1.34 1.35 1.41 1.44 1.44 1.47 1.52 1.61 1.75 1.80 1.89 1.97 2.05 2.07 2.04 1.97 1.91 2.06 2.21 2.37 2.38 2.30 2.32 2.45 2.62 2.50 2.45 2.53 2.31 2.12 2.24 2.09 1.88 1.88 1.48
1.21 1.27 1.34 1.30 1.29 1.31 1.32 1.28 1.26 1.33 1.39 1.46 1.47 1.53 1.56 1.61 1.65 1.72 1.78 1.71 1.72 1.72 1.73 1.75 1.76 1.82 1.98 2.37 2.39 2.44 2.44 2.45 2.61 2.62 2.60 2.63 2.66 2.46 2.47 2.26 2.13 2.01 1.75
1.15 1.19 1.27 1.33 1.32 1.33 1.28 1.22 1.30 1.37 1.34 1.46 1.53 1.51 1.54 1.55 1.46 1.53 1.52 1.44 1.51 1.45 1.40 1.40 1.40 1.48 1.53 1.70 1.76 2.06 2.31 2.42 2.49 2.60 2.61 2.66 2.68 2.80 2.53 2.35 2.30 2.22 2.07
0.92 1.00 1.22 1.37 1.38 1.35 1.25 1.25 1.33 1.40 1.46 1.52 1.55 1.50 1.48 1.33 1.46 1.48 1.44 1.39 1.38 1.33 1.25 1.23 1.19 1.25 1.31 1.32 1.31 1.48 1.76 2.04 2.34 2.56 2.62 2.65 2.72 2.80 2.77 2.59 2.47 2.31 2.20
0.87 0.93 1.02 1.15 1.22 1.17 1.11 1.13 1.19 1.28 1.41 1.47 1.53 1.61 1.61 1.62 1.61 1.51 1.43 1.29 1.26 1.25 1.22 1.23 1.06 1.01 1.12 1.07 1.19 1.24 1.31 1.48 1.64 2.02 2.28 2.33 2.46 2.56 2.76 2.69 2.65 2.57 2.43
1.00 1.04 1.03 1.08 1.17 1.20 1.16 1.16 1.28 1.36 1.40 1.46 1.49 1.57 1.63 1.57 1.57 1.43 1.32 1.15 1.18 1.25 1.23 1.23 1.20 1.17 1.18 1.21 1.26 1.20 1.13 1.16 1.25 1.33 1.44 1.64 1.90 2.24 2.51 2.64 2.75 2.78 2.76
1.05 1.11 1.13 1.17 1.24 1.28 1.26 1.35 1.47 1.56 1.48 1.45 1.51 1.58 1.65 1.68 1.64 1.42 1.29 1.15 1.19 1.25 1.20 1.20 1.26 1.20 1.23 1.14 1.16 1.18 1.14 1.09 1.13 1.22 1.18 1.30 1.44 1.66 1.96 2.16 2.32 2.54 2.78
1.18 1.18 1.24 1.35 1.41 1.46 1.59 1.79 1.85 1.84 1.77 1.71 1.62 1.62 1.64 1.70 1.68 1.44 1.33 1.22 1.30 1.38 1.43 1.42 1.39 1.28 1.22 1.15 1.08 1.14 1.14 1.11 1.17 1.17 1.11 1.08 1.10 1.22 1.45 1.60 1.77 2.03 2.28
1.49 1.49 1.48 1.59 1.69 1.77 1.99 2.15 2.16 2.12 2.22 2.17 2.01 1.91 1.89 1.86 1.81 1.63 1.61 1.50 1.60 1.71 1.65 1.55 1.45 1.34 1.13 1.05 1.02 1.03 1.05 1.10 1.20 1.26 1.24 1.19 1.16 1.14 1.20 1.34 1.54 1.66 1.78
1.57 1.64 1.71 1.87 1.83 1.90 2.16 2.23 2.33 2.47 2.48 2.38 2.37 2.28 2.18 2.15 1.95 1.78 1.69 1.61 1.56 1.61 1.64 1.52 1.40 1.27 1.05 0.94 0.88 0.86 0.88 0.85 0.89 1.01 1.06 1.10 1.12 1.07 1.09 1.23 1.44 1.61 1.60
1.75 1.83 1.96 2.13 2.26 2.32 2.48 2.58 2.57 2.57 2.57 2.53 2.54 2.48 2.40 2.34 2.15 1.83 1.65 1.57 1.47 1.40 1.41 1.40 1.30 1.17 1.03 0.90 0.89 0.85 0.78 0.76 0.84 0.91 0.95 1.03 1.07 1.05 1.07 1.20 1.36 1.56 1.58
1.87 1.92 2.05 2.20 2.28 2.37 2.55 2.60 2.63 2.63 2.63 2.69 2.68 2.54 2.43 2.34 2.18 1.93 1.68 1.53 1.41 1.28 1.26 1.32 1.28 1.16 1.03 0.99 0.98 0.90 0.82 0.89 0.98 0.95 0.97 1.04 1.13 1.17 1.18 1.19 1.31 1.42 1.52
1.98 2.04 2.18 2.33 2.45 2.53 2.46 2.51 2.58 2.61 2.54 2.46 2.44 2.40 2.39 2.30 2.16 1.96 1.75 1.62 1.53 1.47 1.39 1.36 1.36 1.26 1.17 1.13 1.16 1.16 1.15 1.11 1.05 1.05 1.10 1.16 1.22 1.26 1.25 1.28 1.33 1.38 1.37
2.08 2.13 2.22 2.30 2.44 2.45 2.44 2.35 2.26 2.17 2.15 2.04 2.04 2.06 2.05 2.03 1.93 1.70 1.57 1.50 1.49 1.54 1.46 1.44 1.51 1.52 1.46 1.39 1.36 1.35 1.33 1.26 1.23 1.24 1.27 1.27 1.26 1.26 1.25 1.32 1.43 1.44 1.42
2.14 2.16 2.19 2.18 2.27 2.37 2.38 2.32 2.21 2.09 1.97 1.86 1.80 1.73 1.66 1.66 1.62 1.57 1.57 1.56 1.52 1.47 1.39 1.46 1.59 1.66 1.68 1.65 1.57 1.47 1.41 1.34 1.28 1.27 1.26 1.27 1.26 1.30 1.34 1.38 1.44 1.49 1.49
2.07 2.12 2.06 2.05 2.13 2.26 2.28 2.29 2.28 2.19 2.11 1.99 1.88 1.78 1.60 1.48 1.46 1.50 1.57 1.54 1.48 1.41 1.42 1.57 1.68 1.71 1.76 1.76 1.64 1.56 1.49 1.40 1.35 1.35 1.38 1.43 1.43 1.43 1.43 1.40 1.41 1.44 1.49
2.02 2.02 2.04 2.06 2.10 2.17 2.22 2.27 2.28 2.19 2.14 2.03 1.82 1.67 1.57 1.46 1.41 1.44 1.41 1.35 1.44 1.51 1.56 1.69 1.75 1.73 1.66 1.60 1.56 1.53 1.46 1.42 1.39 1.40 1.40 1.40 1.40 1.42 1.45 1.47 1.49 1.56 1.53
1.86 2.00 2.05 1.99 1.98 2.04 2.15 2.24 2.24 2.21 2.20 2.15 2.00 1.72 1.52 1.37 1.30 1.35 1.31 1.29 1.35 1.39 1.42 1.52 1.62 1.66 1.64 1.58 1.53 1.45 1.40 1.37 1.35 1.35 1.34 1.35 1.39 1.41 1.37 1.41 1.45 1.42 1.41
1.81 1.81 1.92 1.89 1.87 1.89 1.95 1.99 2.04 2.01 1.93 1.89 1.85 1.71 1.57 1.41 1.40 1.37 1.35 1.35 1.33 1.30 1.35 1.46 1.52 1.50 1.44 1.41 1.41 1.37 1.34 1.35 1.33 1.32 1.36 1.38 1.40 1.38 1.30 1.28 1.29 1.29 1.29
1.91 1.87 1.77 1.75 1.76 1.82 1.83 1.82 1.83 1.78 1.70 1.66 1.61 1.52 1.48 1.37 1.38 1.38 1.35 1.33 1.27 1.21 1.20 1.24 1.29 1.31 1.28 1.24 1.28 1.30 1.30 1.28 1.29 1.28 1.27 1.28 1.30 1.28 1.25 1.25 1.26 1.31 1.37
1.85 1.81 1.69 1.58 1.52 1.60 1.60 1.59 1.59 1.55 1.52 1.50 1.46 1.36 1.29 1.30 1.28 1.22 1.18 1.14 1.10 1.08 1.09 1.13 1.16 1.16 1.13 1.10 1.11 1.15 1.16 1.13 1.15 1.19 1.23 1.24 1.24 1.19 1.19 1.23 1.23 1.29 1.34
1.70 1.68 1.59 1.47 1.33 1.29 1.38 1.48 1.49 1.47 1.46 1.38 1.27 1.19 1.16 1.16 1.11 1.00 0.95 0.93 0.92 0.89 0.89 0.93 0.91 0.87 0.89 0.93 0.96 0.96 0.95 0.93 0.92 0.97 1.00 1.07 1.12 1.09 1.09 1.11 1.08 1.13 1.27
1.43 1.43 1.44 1.40 1.25 1.16 1.24 1.34 1.34 1.28 1.24 1.16 1.06 1.04 1.01 0.96 0.93 0.89 0.85 0.83 0.80 0.79 0.73 0.72 0.74 0.73 0.75 0.76 0.76 0.76 0.74 0.70 0.68 0.71 0.77 0.85 0.94 0.99 1.00 1.03 1.08 1.17 1.27
1.19 1.20 1.23 1.23 1.15 1.07 1.11 1.19 1.18 1.11 1.09 1.00 0.89 0.88 0.89 0.88 0.88 0.87 0.83 0.78 0.75 0.70 0.65 0.65 0.68 0.67 0.64 0.65 0.64 0.60 0.58 0.56 0.57 0.61 0.61 0.69 0.83 0.94 0.96 1.00 1.01 1.07 1.14